owner,sensor,date,latitude,longitude,sea_surface_height_above_sea_level,qcFlag 
DISL,ioos:station:DISL:MHPA:1,2017-11-01T00:30:00Z,30.6671,-87.9365,0.969,1111122 
DISL,ioos:station:DISL:MHPA:1,2017-11-01T01:30:00Z,30.6671,-87.9365,1.036,1111122 
DISL,ioos:station:DISL:MHPA:1,2017-11-01T02:30:00Z,30.6671,-87.9365,1.071,1111122 
DISL,ioos:station:DISL:MHPA:1,2017-11-01T03:30:00Z,30.6671,-87.9365,1.123,1111122 
DISL,ioos:station:DISL:MHPA:1,2017-11-01T04:30:00Z,30.6671,-87.9365,1.182,1111122 
DISL,ioos:station:DISL:MHPA:1,2017-11-01T05:30:00Z,30.6671,-87.9365,1.194,1111122 
DISL,ioos:station:DISL:MHPA:1,2017-11-01T06:30:00Z,30.6671,-87.9365,1.191,1111122 
DISL,ioos:station:DISL:MHPA:1,2017-11-01T07:30:00Z,30.6671,-87.9365,1.16,1111122 
DISL,ioos:station:DISL:MHPA:1,2017-11-01T08:30:00Z,30.6671,-87.9365,1.115,1111122 
DISL,ioos:station:DISL:MHPA:1,2017-11-01T09:30:00Z,30.6671,-87.9365,1.072,1111122 
DISL,ioos:station:DISL:MHPA:1,2017-11-01T10:30:00Z,30.6671,-87.9365,1.042,1111122 
DISL,ioos:station:DISL:MHPA:1,2017-11-01T11:30:00Z,30.6671,-87.9365,1.039,1111122 
DISL,ioos:station:DISL:MHPA:1,2017-11-01T12:30:00Z,30.6671,-87.9365,1.063,1111122 
DISL,ioos:station:DISL:MHPA:1,2017-11-01T13:30:00Z,30.6671,-87.9365,1.135,1111122 
DISL,ioos:station:DISL:MHPA:1,2017-11-01T14:30:00Z,30.6671,-87.9365,1.19,1111122 
DISL,ioos:station:DISL:MHPA:1,2017-11-01T15:30:00Z,30.6671,-87.9365,1.247,1111122 
DISL,ioos:station:DISL:MHPA:1,2017-11-01T16:30:00Z,30.6671,-87.9365,1.31,1111122 
DISL,ioos:station:DISL:MHPA:1,2017-11-01T17:30:00Z,30.6671,-87.9365,1.354,1111122 
DISL,ioos:station:DISL:MHPA:1,2017-11-01T18:30:00Z,30.6671,-87.9365,1.359,1111122 
DISL,ioos:station:DISL:MHPA:1,2017-11-01T19:30:00Z,30.6671,-87.9365,1.363,1111122 
DISL,ioos:station:DISL:MHPA:1,2017-11-01T20:30:00Z,30.6671,-87.9365,1.312,1111122 
DISL,ioos:station:DISL:MHPA:1,2017-11-01T21:30:00Z,30.6671,-87.9365,1.289,1111122 
DISL,ioos:station:DISL:MHPA:1,2017-11-01T22:30:00Z,30.6671,-87.9365,1.256,1111122 
DISL,ioos:station:DISL:MHPA:1,2017-11-01T23:30:00Z,30.6671,-87.9365,1.23,1111122 
DISL,ioos:station:DISL:MHPA:1,2017-11-02T00:30:00Z,30.6671,-87.9365,1.26,1111122 
DISL,ioos:station:DISL:MHPA:1,2017-11-02T01:30:00Z,30.6671,-87.9365,1.305,1111122 
DISL,ioos:station:DISL:MHPA:1,2017-11-02T02:30:00Z,30.6671,-87.9365,1.362,1111122 
DISL,ioos:station:DISL:MHPA:1,2017-11-02T03:30:00Z,30.6671,-87.9365,1.401,1111122 
DISL,ioos:station:DISL:MHPA:1,2017-11-02T04:30:00Z,30.6671,-87.9365,1.407,1111122 
DISL,ioos:station:DISL:MHPA:1,2017-11-02T05:30:00Z,30.6671,-87.9365,1.441,1111122 
DISL,ioos:station:DISL:MHPA:1,2017-11-02T06:30:00Z,30.6671,-87.9365,1.427,1111122 
DISL,ioos:station:DISL:MHPA:1,2017-11-02T07:30:00Z,30.6671,-87.9365,1.394,1111122 
DISL,ioos:station:DISL:MHPA:1,2017-11-02T08:30:00Z,30.6671,-87.9365,1.327,1111122 
DISL,ioos:station:DISL:MHPA:1,2017-11-02T09:30:00Z,30.6671,-87.9365,1.24,1111122 
DISL,ioos:station:DISL:MHPA:1,2017-11-02T10:30:00Z,30.6671,-87.9365,1.167,1111122 
DISL,ioos:station:DISL:MHPA:1,2017-11-02T11:30:00Z,30.6671,-87.9365,1.123,1111122 
DISL,ioos:station:DISL:MHPA:1,2017-11-02T12:30:00Z,30.6671,-87.9365,1.103,1111122 
DISL,ioos:station:DISL:MHPA:1,2017-11-02T13:30:00Z,30.6671,-87.9365,1.083,1111122 
DISL,ioos:station:DISL:MHPA:1,2017-11-02T14:30:00Z,30.6671,-87.9365,1.079,1111122 
DISL,ioos:station:DISL:MHPA:1,2017-11-02T15:30:00Z,30.6671,-87.9365,1.122,1111122 
DISL,ioos:station:DISL:MHPA:1,2017-11-02T16:30:00Z,30.6671,-87.9365,1.189,1111122 
DISL,ioos:station:DISL:MHPA:1,2017-11-02T17:30:00Z,30.6671,-87.9365,1.248,1111122 
DISL,ioos:station:DISL:MHPA:1,2017-11-02T18:30:00Z,30.6671,-87.9365,1.305,1111122 
DISL,ioos:station:DISL:MHPA:1,2017-11-02T19:30:00Z,30.6671,-87.9365,1.32,1111122 
DISL,ioos:station:DISL:MHPA:1,2017-11-02T20:30:00Z,30.6671,-87.9365,1.307,1111122 
DISL,ioos:station:DISL:MHPA:1,2017-11-02T21:30:00Z,30.6671,-87.9365,1.265,1111122 
DISL,ioos:station:DISL:MHPA:1,2017-11-02T22:30:00Z,30.6671,-87.9365,1.235,1111122 
DISL,ioos:station:DISL:MHPA:1,2017-11-02T23:30:00Z,30.6671,-87.9365,1.203,1111122 
DISL,ioos:station:DISL:MHPA:1,2017-11-03T00:30:00Z,30.6671,-87.9365,1.21,1111122 
DISL,ioos:station:DISL:MHPA:1,2017-11-03T01:30:00Z,30.6671,-87.9365,1.241,1111122 
DISL,ioos:station:DISL:MHPA:1,2017-11-03T02:30:00Z,30.6671,-87.9365,1.29,1111122 
DISL,ioos:station:DISL:MHPA:1,2017-11-03T03:30:00Z,30.6671,-87.9365,1.323,1111122 
DISL,ioos:station:DISL:MHPA:1,2017-11-03T04:30:00Z,30.6671,-87.9365,1.358,1111122 
DISL,ioos:station:DISL:MHPA:1,2017-11-03T05:30:00Z,30.6671,-87.9365,1.358,1111122 
DISL,ioos:station:DISL:MHPA:1,2017-11-03T06:30:00Z,30.6671,-87.9365,1.344,1111122 
DISL,ioos:station:DISL:MHPA:1,2017-11-03T07:30:00Z,30.6671,-87.9365,1.302,1111122 
DISL,ioos:station:DISL:MHPA:1,2017-11-03T08:30:00Z,30.6671,-87.9365,1.217,1111122 
DISL,ioos:station:DISL:MHPA:1,2017-11-03T09:30:00Z,30.6671,-87.9365,1.137,1111122 
DISL,ioos:station:DISL:MHPA:1,2017-11-03T10:30:00Z,30.6671,-87.9365,1.06,1111122 
DISL,ioos:station:DISL:MHPA:1,2017-11-03T11:30:00Z,30.6671,-87.9365,1.01,1111122 
DISL,ioos:station:DISL:MHPA:1,2017-11-03T12:30:00Z,30.6671,-87.9365,0.971,1111122 
DISL,ioos:station:DISL:MHPA:1,2017-11-03T13:30:00Z,30.6671,-87.9365,0.967,1111122 
DISL,ioos:station:DISL:MHPA:1,2017-11-03T14:30:00Z,30.6671,-87.9365,0.988,1111122 
DISL,ioos:station:DISL:MHPA:1,2017-11-03T15:30:00Z,30.6671,-87.9365,1.012,1111122 
DISL,ioos:station:DISL:MHPA:1,2017-11-03T16:30:00Z,30.6671,-87.9365,1.064,1111122 
DISL,ioos:station:DISL:MHPA:1,2017-11-03T17:30:00Z,30.6671,-87.9365,1.122,1111122 
DISL,ioos:station:DISL:MHPA:1,2017-11-03T18:30:00Z,30.6671,-87.9365,1.161,1111122 
DISL,ioos:station:DISL:MHPA:1,2017-11-03T19:30:00Z,30.6671,-87.9365,1.201,1111122 
DISL,ioos:station:DISL:MHPA:1,2017-11-03T20:30:00Z,30.6671,-87.9365,1.197,1111122 
DISL,ioos:station:DISL:MHPA:1,2017-11-03T21:30:00Z,30.6671,-87.9365,1.213,1111122 
DISL,ioos:station:DISL:MHPA:1,2017-11-03T22:30:00Z,30.6671,-87.9365,1.22,1111122 
DISL,ioos:station:DISL:MHPA:1,2017-11-03T23:30:00Z,30.6671,-87.9365,1.227,1111122 
DISL,ioos:station:DISL:MHPA:1,2017-11-04T00:30:00Z,30.6671,-87.9365,1.236,1111122 
DISL,ioos:station:DISL:MHPA:1,2017-11-04T01:30:00Z,30.6671,-87.9365,1.273,1111122 
DISL,ioos:station:DISL:MHPA:1,2017-11-04T02:30:00Z,30.6671,-87.9365,1.316,1111122 
DISL,ioos:station:DISL:MHPA:1,2017-11-04T03:30:00Z,30.6671,-87.9365,1.37,1111122 
DISL,ioos:station:DISL:MHPA:1,2017-11-04T04:30:00Z,30.6671,-87.9365,1.401,1111122 
DISL,ioos:station:DISL:MHPA:1,2017-11-04T05:30:00Z,30.6671,-87.9365,1.373,1111122 
DISL,ioos:station:DISL:MHPA:1,2017-11-04T06:30:00Z,30.6671,-87.9365,1.343,1111122 
DISL,ioos:station:DISL:MHPA:1,2017-11-04T07:30:00Z,30.6671,-87.9365,1.284,1111122 
DISL,ioos:station:DISL:MHPA:1,2017-11-04T08:30:00Z,30.6671,-87.9365,1.191,1111122 
DISL,ioos:station:DISL:MHPA:1,2017-11-04T09:30:00Z,30.6671,-87.9365,1.098,1111122 
DISL,ioos:station:DISL:MHPA:1,2017-11-04T10:30:00Z,30.6671,-87.9365,1.016,1111122 
DISL,ioos:station:DISL:MHPA:1,2017-11-04T11:30:00Z,30.6671,-87.9365,0.946,1111122 
DISL,ioos:station:DISL:MHPA:1,2017-11-04T12:30:00Z,30.6671,-87.9365,0.896,1111122 
DISL,ioos:station:DISL:MHPA:1,2017-11-04T13:30:00Z,30.6671,-87.9365,0.885,1111122 
DISL,ioos:station:DISL:MHPA:1,2017-11-04T14:30:00Z,30.6671,-87.9365,0.863,1111122 
DISL,ioos:station:DISL:MHPA:1,2017-11-04T15:30:00Z,30.6671,-87.9365,0.871,1111122 
DISL,ioos:station:DISL:MHPA:1,2017-11-04T16:30:00Z,30.6671,-87.9365,0.875,1111122 
DISL,ioos:station:DISL:MHPA:1,2017-11-04T17:30:00Z,30.6671,-87.9365,0.919,1111122 
DISL,ioos:station:DISL:MHPA:1,2017-11-04T18:30:00Z,30.6671,-87.9365,0.965,1111122 
DISL,ioos:station:DISL:MHPA:1,2017-11-04T19:30:00Z,30.6671,-87.9365,1.048,1111122 
DISL,ioos:station:DISL:MHPA:1,2017-11-04T20:30:00Z,30.6671,-87.9365,1.095,1111122 
DISL,ioos:station:DISL:MHPA:1,2017-11-04T21:30:00Z,30.6671,-87.9365,1.121,1111122 
DISL,ioos:station:DISL:MHPA:1,2017-11-04T22:30:00Z,30.6671,-87.9365,1.141,1111122 
DISL,ioos:station:DISL:MHPA:1,2017-11-04T23:30:00Z,30.6671,-87.9365,1.17,1111122 
DISL,ioos:station:DISL:MHPA:1,2017-11-05T00:30:00Z,30.6671,-87.9365,1.196,1111122 
DISL,ioos:station:DISL:MHPA:1,2017-11-05T01:30:00Z,30.6671,-87.9365,1.24,1111122 
DISL,ioos:station:DISL:MHPA:1,2017-11-05T02:30:00Z,30.6671,-87.9365,1.294,1111122 
DISL,ioos:station:DISL:MHPA:1,2017-11-05T03:30:00Z,30.6671,-87.9365,1.361,1111122 
DISL,ioos:station:DISL:MHPA:1,2017-11-05T04:30:00Z,30.6671,-87.9365,1.398,1111122 
DISL,ioos:station:DISL:MHPA:1,2017-11-05T05:30:00Z,30.6671,-87.9365,1.395,1111122 
DISL,ioos:station:DISL:MHPA:1,2017-11-05T06:30:00Z,30.6671,-87.9365,1.359,1111122 
DISL,ioos:station:DISL:MHPA:1,2017-11-05T08:30:00Z,30.6671,-87.9365,1.234,1111122 
DISL,ioos:station:DISL:MHPA:1,2017-11-05T09:30:00Z,30.6671,-87.9365,1.136,1111122 
DISL,ioos:station:DISL:MHPA:1,2017-11-05T10:30:00Z,30.6671,-87.9365,1.048,1111122 
DISL,ioos:station:DISL:MHPA:1,2017-11-05T11:30:00Z,30.6671,-87.9365,0.98,1111122 
DISL,ioos:station:DISL:MHPA:1,2017-11-05T12:30:00Z,30.6671,-87.9365,0.914,1111122 
DISL,ioos:station:DISL:MHPA:1,2017-11-05T13:30:00Z,30.6671,-87.9365,0.868,1111122 
DISL,ioos:station:DISL:MHPA:1,2017-11-05T14:30:00Z,30.6671,-87.9365,0.819,1111122 
DISL,ioos:station:DISL:MHPA:1,2017-11-05T15:30:00Z,30.6671,-87.9365,0.81,1111122 
DISL,ioos:station:DISL:MHPA:1,2017-11-05T16:30:00Z,30.6671,-87.9365,0.787,1111122 
DISL,ioos:station:DISL:MHPA:1,2017-11-05T17:30:00Z,30.6671,-87.9365,0.786,1111122 
DISL,ioos:station:DISL:MHPA:1,2017-11-05T18:30:00Z,30.6671,-87.9365,0.811,1111122 
DISL,ioos:station:DISL:MHPA:1,2017-11-05T19:30:00Z,30.6671,-87.9365,0.879,1111122 
DISL,ioos:station:DISL:MHPA:1,2017-11-05T20:30:00Z,30.6671,-87.9365,1.0,1111122 
DISL,ioos:station:DISL:MHPA:1,2017-11-05T21:30:00Z,30.6671,-87.9365,1.069,1111122 
DISL,ioos:station:DISL:MHPA:1,2017-11-05T22:30:00Z,30.6671,-87.9365,1.113,1111122 
DISL,ioos:station:DISL:MHPA:1,2017-11-05T23:30:00Z,30.6671,-87.9365,1.139,1111122 
DISL,ioos:station:DISL:MHPA:1,2017-11-06T00:30:00Z,30.6671,-87.9365,1.182,1111122 
DISL,ioos:station:DISL:MHPA:1,2017-11-06T01:30:00Z,30.6671,-87.9365,1.265,1111122 
DISL,ioos:station:DISL:MHPA:1,2017-11-06T02:30:00Z,30.6671,-87.9365,1.348,1111122 
DISL,ioos:station:DISL:MHPA:1,2017-11-06T03:30:00Z,30.6671,-87.9365,1.414,1111122 
DISL,ioos:station:DISL:MHPA:1,2017-11-06T04:30:00Z,30.6671,-87.9365,1.463,1111122 
DISL,ioos:station:DISL:MHPA:1,2017-11-06T05:30:00Z,30.6671,-87.9365,1.486,1111122 
DISL,ioos:station:DISL:MHPA:1,2017-11-06T06:30:00Z,30.6671,-87.9365,1.455,1111122 
DISL,ioos:station:DISL:MHPA:1,2017-11-06T07:30:00Z,30.6671,-87.9365,1.404,1111122 
DISL,ioos:station:DISL:MHPA:1,2017-11-06T08:30:00Z,30.6671,-87.9365,1.32,1111122 
DISL,ioos:station:DISL:MHPA:1,2017-11-06T09:30:00Z,30.6671,-87.9365,1.232,1111122 
DISL,ioos:station:DISL:MHPA:1,2017-11-06T10:30:00Z,30.6671,-87.9365,1.144,1111122 
DISL,ioos:station:DISL:MHPA:1,2017-11-06T11:30:00Z,30.6671,-87.9365,1.075,1111122 
DISL,ioos:station:DISL:MHPA:1,2017-11-06T12:30:00Z,30.6671,-87.9365,0.988,1111122 
DISL,ioos:station:DISL:MHPA:1,2017-11-06T13:30:00Z,30.6671,-87.9365,0.919,1111122 
DISL,ioos:station:DISL:MHPA:1,2017-11-06T14:30:00Z,30.6671,-87.9365,0.849,1111122 
DISL,ioos:station:DISL:MHPA:1,2017-11-06T15:30:00Z,30.6671,-87.9365,0.794,1111122 
DISL,ioos:station:DISL:MHPA:1,2017-11-06T16:30:00Z,30.6671,-87.9365,0.735,1111122 
DISL,ioos:station:DISL:MHPA:1,2017-11-06T17:30:00Z,30.6671,-87.9365,0.685,1111122 
DISL,ioos:station:DISL:MHPA:1,2017-11-06T18:30:00Z,30.6671,-87.9365,0.678,1111122 
DISL,ioos:station:DISL:MHPA:1,2017-11-06T19:30:00Z,30.6671,-87.9365,0.703,1111122 
DISL,ioos:station:DISL:MHPA:1,2017-11-06T20:30:00Z,30.6671,-87.9365,0.784,1111122 
DISL,ioos:station:DISL:MHPA:1,2017-11-06T21:30:00Z,30.6671,-87.9365,0.894,1111122 
DISL,ioos:station:DISL:MHPA:1,2017-11-06T22:30:00Z,30.6671,-87.9365,0.97,1111122 
DISL,ioos:station:DISL:MHPA:1,2017-11-06T23:30:00Z,30.6671,-87.9365,1.045,1111122 
DISL,ioos:station:DISL:MHPA:1,2017-11-07T00:30:00Z,30.6671,-87.9365,1.101,1111122 
DISL,ioos:station:DISL:MHPA:1,2017-11-07T01:30:00Z,30.6671,-87.9365,1.167,1111122 
DISL,ioos:station:DISL:MHPA:1,2017-11-07T02:30:00Z,30.6671,-87.9365,1.247,1111122 
DISL,ioos:station:DISL:MHPA:1,2017-11-07T03:30:00Z,30.6671,-87.9365,1.316,1111122 
DISL,ioos:station:DISL:MHPA:1,2017-11-07T04:30:00Z,30.6671,-87.9365,1.38,1111122 
DISL,ioos:station:DISL:MHPA:1,2017-11-07T05:30:00Z,30.6671,-87.9365,1.419,1111122 
DISL,ioos:station:DISL:MHPA:1,2017-11-07T06:30:00Z,30.6671,-87.9365,1.424,1111122 
DISL,ioos:station:DISL:MHPA:1,2017-11-07T07:00:00Z,30.6671,-87.9365,1.414,1111122 
DISL,ioos:station:DISL:MHPA:1,2017-11-07T08:30:00Z,30.6671,-87.9365,1.345,1111122 
DISL,ioos:station:DISL:MHPA:1,2017-11-07T09:30:00Z,30.6671,-87.9365,1.276,1111122 
DISL,ioos:station:DISL:MHPA:1,2017-11-07T10:30:00Z,30.6671,-87.9365,1.193,1111122 
DISL,ioos:station:DISL:MHPA:1,2017-11-07T11:30:00Z,30.6671,-87.9365,1.109,1111122 
DISL,ioos:station:DISL:MHPA:1,2017-11-07T12:30:00Z,30.6671,-87.9365,1.041,1111122 
DISL,ioos:station:DISL:MHPA:1,2017-11-07T13:30:00Z,30.6671,-87.9365,0.966,1111122 
DISL,ioos:station:DISL:MHPA:1,2017-11-07T14:30:00Z,30.6671,-87.9365,0.911,1111122 
DISL,ioos:station:DISL:MHPA:1,2017-11-07T15:30:00Z,30.6671,-87.9365,0.838,1111122 
DISL,ioos:station:DISL:MHPA:1,2017-11-07T16:30:00Z,30.6671,-87.9365,0.794,1111122 
DISL,ioos:station:DISL:MHPA:1,2017-11-07T17:30:00Z,30.6671,-87.9365,0.718,1111122 
DISL,ioos:station:DISL:MHPA:1,2017-11-07T18:30:00Z,30.6671,-87.9365,0.654,1111122 
DISL,ioos:station:DISL:MHPA:1,2017-11-07T19:30:00Z,30.6671,-87.9365,0.646,1111122 
DISL,ioos:station:DISL:MHPA:1,2017-11-07T20:30:00Z,30.6671,-87.9365,0.679,1111122 
DISL,ioos:station:DISL:MHPA:1,2017-11-07T21:30:00Z,30.6671,-87.9365,0.776,1111122 
DISL,ioos:station:DISL:MHPA:1,2017-11-07T22:30:00Z,30.6671,-87.9365,0.872,1111122 
DISL,ioos:station:DISL:MHPA:1,2017-11-07T23:30:00Z,30.6671,-87.9365,0.97,1111122 
DISL,ioos:station:DISL:MHPA:1,2017-11-08T00:30:00Z,30.6671,-87.9365,1.049,1111122 
DISL,ioos:station:DISL:MHPA:1,2017-11-08T01:30:00Z,30.6671,-87.9365,1.097,1111122 
DISL,ioos:station:DISL:MHPA:1,2017-11-08T02:30:00Z,30.6671,-87.9365,1.156,1111122 
DISL,ioos:station:DISL:MHPA:1,2017-11-08T03:30:00Z,30.6671,-87.9365,1.237,1111122 
DISL,ioos:station:DISL:MHPA:1,2017-11-08T05:30:00Z,30.6671,-87.9365,1.356,1111122 
DISL,ioos:station:DISL:MHPA:1,2017-11-08T06:30:00Z,30.6671,-87.9365,1.393,1111122 
DISL,ioos:station:DISL:MHPA:1,2017-11-08T07:30:00Z,30.6671,-87.9365,1.388,1111122 
DISL,ioos:station:DISL:MHPA:1,2017-11-08T08:30:00Z,30.6671,-87.9365,1.357,1111122 
DISL,ioos:station:DISL:MHPA:1,2017-11-08T09:30:00Z,30.6671,-87.9365,1.291,1111122 
DISL,ioos:station:DISL:MHPA:1,2017-11-08T10:30:00Z,30.6671,-87.9365,1.223,1111122 
DISL,ioos:station:DISL:MHPA:1,2017-11-08T11:30:00Z,30.6671,-87.9365,1.147,1111122 
DISL,ioos:station:DISL:MHPA:1,2017-11-08T12:30:00Z,30.6671,-87.9365,1.085,1111122 
DISL,ioos:station:DISL:MHPA:1,2017-11-08T13:30:00Z,30.6671,-87.9365,1.001,1111122 
DISL,ioos:station:DISL:MHPA:1,2017-11-08T14:30:00Z,30.6671,-87.9365,0.932,1111122 
DISL,ioos:station:DISL:MHPA:1,2017-11-08T15:30:00Z,30.6671,-87.9365,0.864,1111122 
DISL,ioos:station:DISL:MHPA:1,2017-11-08T16:30:00Z,30.6671,-87.9365,0.799,1111122 
DISL,ioos:station:DISL:MHPA:1,2017-11-08T17:30:00Z,30.6671,-87.9365,0.753,1111122 
DISL,ioos:station:DISL:MHPA:1,2017-11-08T18:30:00Z,30.6671,-87.9365,0.7,1111122 
DISL,ioos:station:DISL:MHPA:1,2017-11-08T19:30:00Z,30.6671,-87.9365,0.638,1111122 
DISL,ioos:station:DISL:MHPA:1,2017-11-08T20:30:00Z,30.6671,-87.9365,0.599,1111122 
DISL,ioos:station:DISL:MHPA:1,2017-11-08T21:30:00Z,30.6671,-87.9365,0.595,1111122 
DISL,ioos:station:DISL:MHPA:1,2017-11-08T22:30:00Z,30.6671,-87.9365,0.632,1111122 
DISL,ioos:station:DISL:MHPA:1,2017-11-08T23:30:00Z,30.6671,-87.9365,0.744,1111122 
DISL,ioos:station:DISL:MHPA:1,2017-11-09T00:30:00Z,30.6671,-87.9365,0.841,1111122 
DISL,ioos:station:DISL:MHPA:1,2017-11-09T01:30:00Z,30.6671,-87.9365,0.883,1111122 
DISL,ioos:station:DISL:MHPA:1,2017-11-09T02:30:00Z,30.6671,-87.9365,0.961,1111122 
DISL,ioos:station:DISL:MHPA:1,2017-11-09T03:30:00Z,30.6671,-87.9365,1.04,1111122 
DISL,ioos:station:DISL:MHPA:1,2017-11-09T04:30:00Z,30.6671,-87.9365,1.098,1111122 
DISL,ioos:station:DISL:MHPA:1,2017-11-09T05:30:00Z,30.6671,-87.9365,1.175,1111122 
DISL,ioos:station:DISL:MHPA:1,2017-11-09T06:30:00Z,30.6671,-87.9365,1.259,1111122 
DISL,ioos:station:DISL:MHPA:1,2017-11-09T07:30:00Z,30.6671,-87.9365,1.318,1111122 
DISL,ioos:station:DISL:MHPA:1,2017-11-09T08:30:00Z,30.6671,-87.9365,1.345,1111122 
DISL,ioos:station:DISL:MHPA:1,2017-11-09T09:30:00Z,30.6671,-87.9365,1.327,1111122 
DISL,ioos:station:DISL:MHPA:1,2017-11-09T10:30:00Z,30.6671,-87.9365,1.263,1111122 
DISL,ioos:station:DISL:MHPA:1,2017-11-09T11:30:00Z,30.6671,-87.9365,1.19,1111122 
DISL,ioos:station:DISL:MHPA:1,2017-11-09T12:30:00Z,30.6671,-87.9365,1.132,1111122 
DISL,ioos:station:DISL:MHPA:1,2017-11-09T13:30:00Z,30.6671,-87.9365,1.046,1111122 
DISL,ioos:station:DISL:MHPA:1,2017-11-09T14:30:00Z,30.6671,-87.9365,0.967,1111122 
DISL,ioos:station:DISL:MHPA:1,2017-11-09T15:30:00Z,30.6671,-87.9365,0.864,1111122 
DISL,ioos:station:DISL:MHPA:1,2017-11-09T16:30:00Z,30.6671,-87.9365,0.811,1111122 
DISL,ioos:station:DISL:MHPA:1,2017-11-09T17:30:00Z,30.6671,-87.9365,0.763,1111122 
DISL,ioos:station:DISL:MHPA:1,2017-11-09T18:30:00Z,30.6671,-87.9365,0.706,1111122 
DISL,ioos:station:DISL:MHPA:1,2017-11-09T19:30:00Z,30.6671,-87.9365,0.671,1111122 
DISL,ioos:station:DISL:MHPA:1,2017-11-09T20:30:00Z,30.6671,-87.9365,0.637,1111122 
DISL,ioos:station:DISL:MHPA:1,2017-11-09T21:30:00Z,30.6671,-87.9365,0.633,1111122 
DISL,ioos:station:DISL:MHPA:1,2017-11-09T22:30:00Z,30.6671,-87.9365,0.67,1111122 
DISL,ioos:station:DISL:MHPA:1,2017-11-09T23:30:00Z,30.6671,-87.9365,0.745,1111122 
DISL,ioos:station:DISL:MHPA:1,2017-11-10T00:30:00Z,30.6671,-87.9365,0.84,1111122 
DISL,ioos:station:DISL:MHPA:1,2017-11-10T01:30:00Z,30.6671,-87.9365,0.93,1111122 
DISL,ioos:station:DISL:MHPA:1,2017-11-10T02:30:00Z,30.6671,-87.9365,0.996,1111122 
DISL,ioos:station:DISL:MHPA:1,2017-11-10T03:30:00Z,30.6671,-87.9365,1.07,1111122 
DISL,ioos:station:DISL:MHPA:1,2017-11-10T04:30:00Z,30.6671,-87.9365,1.138,1111122 
DISL,ioos:station:DISL:MHPA:1,2017-11-10T05:30:00Z,30.6671,-87.9365,1.198,1111122 
DISL,ioos:station:DISL:MHPA:1,2017-11-10T06:30:00Z,30.6671,-87.9365,1.279,1111122 
DISL,ioos:station:DISL:MHPA:1,2017-11-10T07:30:00Z,30.6671,-87.9365,1.316,1111122 
DISL,ioos:station:DISL:MHPA:1,2017-11-10T08:30:00Z,30.6671,-87.9365,1.419,1111122 
DISL,ioos:station:DISL:MHPA:1,2017-11-10T09:30:00Z,30.6671,-87.9365,1.486,1111122 
DISL,ioos:station:DISL:MHPA:1,2017-11-10T10:30:00Z,30.6671,-87.9365,1.507,1111122 
DISL,ioos:station:DISL:MHPA:1,2017-11-10T11:30:00Z,30.6671,-87.9365,1.524,1111122 
DISL,ioos:station:DISL:MHPA:1,2017-11-10T12:30:00Z,30.6671,-87.9365,1.475,1111122 
DISL,ioos:station:DISL:MHPA:1,2017-11-10T13:30:00Z,30.6671,-87.9365,1.388,1111122 
DISL,ioos:station:DISL:MHPA:1,2017-11-10T14:30:00Z,30.6671,-87.9365,1.3,1111122 
DISL,ioos:station:DISL:MHPA:1,2017-11-10T15:30:00Z,30.6671,-87.9365,1.199,1111122 
DISL,ioos:station:DISL:MHPA:1,2017-11-10T16:30:00Z,30.6671,-87.9365,1.151,1111122 
DISL,ioos:station:DISL:MHPA:1,2017-11-10T17:30:00Z,30.6671,-87.9365,1.072,1111122 
DISL,ioos:station:DISL:MHPA:1,2017-11-10T18:30:00Z,30.6671,-87.9365,0.995,1111122 
DISL,ioos:station:DISL:MHPA:1,2017-11-10T19:30:00Z,30.6671,-87.9365,0.944,1111122 
DISL,ioos:station:DISL:MHPA:1,2017-11-10T20:30:00Z,30.6671,-87.9365,0.888,1111122 
DISL,ioos:station:DISL:MHPA:1,2017-11-10T21:30:00Z,30.6671,-87.9365,0.845,1111122 
DISL,ioos:station:DISL:MHPA:1,2017-11-10T22:30:00Z,30.6671,-87.9365,0.847,1111122 
DISL,ioos:station:DISL:MHPA:1,2017-11-10T23:30:00Z,30.6671,-87.9365,0.881,1111122 
DISL,ioos:station:DISL:MHPA:1,2017-11-11T00:30:00Z,30.6671,-87.9365,0.943,1111122 
DISL,ioos:station:DISL:MHPA:1,2017-11-11T01:30:00Z,30.6671,-87.9365,1.006,1111122 
DISL,ioos:station:DISL:MHPA:1,2017-11-11T02:30:00Z,30.6671,-87.9365,1.074,1111122 
DISL,ioos:station:DISL:MHPA:1,2017-11-11T03:30:00Z,30.6671,-87.9365,1.152,1111122 
DISL,ioos:station:DISL:MHPA:1,2017-11-11T04:30:00Z,30.6671,-87.9365,1.185,1111122 
DISL,ioos:station:DISL:MHPA:1,2017-11-11T05:30:00Z,30.6671,-87.9365,1.237,1111122 
DISL,ioos:station:DISL:MHPA:1,2017-11-11T06:30:00Z,30.6671,-87.9365,1.272,1111122 
DISL,ioos:station:DISL:MHPA:1,2017-11-11T07:30:00Z,30.6671,-87.9365,1.313,1111122 
DISL,ioos:station:DISL:MHPA:1,2017-11-11T08:30:00Z,30.6671,-87.9365,1.355,1111122 
DISL,ioos:station:DISL:MHPA:1,2017-11-11T09:30:00Z,30.6671,-87.9365,1.393,1111122 
DISL,ioos:station:DISL:MHPA:1,2017-11-11T10:30:00Z,30.6671,-87.9365,1.427,1111122 
DISL,ioos:station:DISL:MHPA:1,2017-11-11T11:30:00Z,30.6671,-87.9365,1.419,1111122 
DISL,ioos:station:DISL:MHPA:1,2017-11-11T12:30:00Z,30.6671,-87.9365,1.404,1111122 
DISL,ioos:station:DISL:MHPA:1,2017-11-11T13:30:00Z,30.6671,-87.9365,1.369,1111122 
DISL,ioos:station:DISL:MHPA:1,2017-11-11T14:30:00Z,30.6671,-87.9365,1.398,1111122 
DISL,ioos:station:DISL:MHPA:1,2017-11-11T15:30:00Z,30.6671,-87.9365,1.34,1111122 
DISL,ioos:station:DISL:MHPA:1,2017-11-11T16:30:00Z,30.6671,-87.9365,1.334,1111122 
DISL,ioos:station:DISL:MHPA:1,2017-11-11T17:30:00Z,30.6671,-87.9365,1.302,1111122 
DISL,ioos:station:DISL:MHPA:1,2017-11-11T18:30:00Z,30.6671,-87.9365,1.237,1111122 
DISL,ioos:station:DISL:MHPA:1,2017-11-11T19:30:00Z,30.6671,-87.9365,1.214,1111122 
DISL,ioos:station:DISL:MHPA:1,2017-11-11T20:30:00Z,30.6671,-87.9365,1.183,1111122 
DISL,ioos:station:DISL:MHPA:1,2017-11-11T21:30:00Z,30.6671,-87.9365,1.185,1111122 
DISL,ioos:station:DISL:MHPA:1,2017-11-11T22:30:00Z,30.6671,-87.9365,1.201,1111122 
DISL,ioos:station:DISL:MHPA:1,2017-11-11T23:30:00Z,30.6671,-87.9365,1.224,1111122 
DISL,ioos:station:DISL:MHPA:1,2017-11-12T00:30:00Z,30.6671,-87.9365,1.263,1111122 
DISL,ioos:station:DISL:MHPA:1,2017-11-12T01:30:00Z,30.6671,-87.9365,1.318,1111122 
DISL,ioos:station:DISL:MHPA:1,2017-11-12T02:30:00Z,30.6671,-87.9365,1.363,1111122 
DISL,ioos:station:DISL:MHPA:1,2017-11-12T03:30:00Z,30.6671,-87.9365,1.391,1111122 
DISL,ioos:station:DISL:MHPA:1,2017-11-12T04:30:00Z,30.6671,-87.9365,1.443,1111122 
DISL,ioos:station:DISL:MHPA:1,2017-11-12T05:30:00Z,30.6671,-87.9365,1.464,1111122 
DISL,ioos:station:DISL:MHPA:1,2017-11-12T06:30:00Z,30.6671,-87.9365,1.435,1111122 
DISL,ioos:station:DISL:MHPA:1,2017-11-12T07:30:00Z,30.6671,-87.9365,1.438,1111122 
DISL,ioos:station:DISL:MHPA:1,2017-11-12T08:30:00Z,30.6671,-87.9365,1.403,1111122 
DISL,ioos:station:DISL:MHPA:1,2017-11-12T09:30:00Z,30.6671,-87.9365,1.437,1111122 
DISL,ioos:station:DISL:MHPA:1,2017-11-12T10:30:00Z,30.6671,-87.9365,1.393,1111122 
DISL,ioos:station:DISL:MHPA:1,2017-11-12T11:30:00Z,30.6671,-87.9365,1.407,1111122 
DISL,ioos:station:DISL:MHPA:1,2017-11-12T12:30:00Z,30.6671,-87.9365,1.405,1111122 
DISL,ioos:station:DISL:MHPA:1,2017-11-12T13:30:00Z,30.6671,-87.9365,1.363,1111122 
DISL,ioos:station:DISL:MHPA:1,2017-11-12T14:30:00Z,30.6671,-87.9365,1.315,1111122 
DISL,ioos:station:DISL:MHPA:1,2017-11-12T15:30:00Z,30.6671,-87.9365,1.323,1111122 
DISL,ioos:station:DISL:MHPA:1,2017-11-12T16:30:00Z,30.6671,-87.9365,1.301,1111122 
DISL,ioos:station:DISL:MHPA:1,2017-11-12T17:30:00Z,30.6671,-87.9365,1.259,1111122 
DISL,ioos:station:DISL:MHPA:1,2017-11-12T18:30:00Z,30.6671,-87.9365,1.196,1111122 
DISL,ioos:station:DISL:MHPA:1,2017-11-12T19:30:00Z,30.6671,-87.9365,1.14,1111122 
DISL,ioos:station:DISL:MHPA:1,2017-11-12T20:30:00Z,30.6671,-87.9365,1.139,1111122 
DISL,ioos:station:DISL:MHPA:1,2017-11-12T21:30:00Z,30.6671,-87.9365,1.155,1111122 
DISL,ioos:station:DISL:MHPA:1,2017-11-12T22:30:00Z,30.6671,-87.9365,1.181,1111122 
DISL,ioos:station:DISL:MHPA:1,2017-11-12T23:30:00Z,30.6671,-87.9365,1.25,1111122 
DISL,ioos:station:DISL:MHPA:1,2017-11-13T00:30:00Z,30.6671,-87.9365,1.251,1111122 
DISL,ioos:station:DISL:MHPA:1,2017-11-13T01:30:00Z,30.6671,-87.9365,1.254,1111122 